GW0587 Weather Reports


Display with metric or nautical units.
time (UTC)temp
F
wind
direction
speed
MPH
gust
MPH
rain 1hr
in
rain 24hr
in
rain mn
in
humidity
%
barometer
mb
20260901210058 98 206 1.0 4.0 0.00 0.00 0.00 47 1016.5
20260901204609 99 140 0.0 4.0 0.00 0.00 0.00 44 1016.5
20260901203107 99 184 0.0 6.0 0.00 0.00 0.00 44 1016.7
20260901201600 99 155 0.0 8.0 0.00 0.00 0.00 44 1017.0
20260901200059 99 169 1.0 8.0 0.00 0.00 0.00 45 1017.0
20260901194556 98 178 0.0 4.0 0.00 0.00 0.00 46 1017.1
20260901193106 97 270 0.0 1.0 0.00 0.00 0.00 48 1017.2
20260901191551 97 0 0.0 3.0 0.00 0.00 0.00 47 1017.5
20260901184558 98 19 1.0 7.0 0.00 0.00 0.00 47 1018.0
20260901183057 98 121 2.0 4.0 0.00 0.00 0.00 47 1018.1
20260901181553 97 0 0.0 3.0 0.00 0.00 0.00 49 1018.2
20260901180048 97 141 1.0 4.0 0.00 0.00 0.00 48 1018.2
20260901174558 97 279 2.0 6.0 0.00 0.00 0.00 49 1018.6
20260901173101 97 330 0.0 5.0 0.00 0.00 0.00 48 1018.9
20260901171552 96 286 1.0 3.0 0.00 0.00 0.00 50 1019.1
20260901170101 95 0 0.0 4.0 0.00 0.00 0.00 52 1019.3
20260901164608 95 0 1.0 6.0 0.00 0.00 0.00 51 1019.4
20260901163054 95 61 0.0 3.0 0.00 0.00 0.00 51 1019.5
20260901161554 95 312 1.0 3.0 0.00 0.00 0.00 53 1019.6
20260901160046 94 0 0.0 3.0 0.00 0.00 0.00 55 1019.6
20260901154557 92 0 0.0 5.0 0.00 0.00 0.00 58 1019.9
20260901153057 92 294 2.0 7.0 0.00 0.00 0.00 58 1019.8
20260901151547 92 300 2.0 4.0 0.00 0.00 0.00 59 1020.0
20260901150059 92 0 0.0 2.0 0.00 0.00 0.00 61 1019.9
20260901144600 91 0 0.0 2.0 0.00 0.00 0.00 62 1019.8
20260901143054 89 0 0.0 4.0 0.00 0.00 0.00 65 1019.8
20260901141548 89 0 0.0 2.0 0.00 0.00 0.00 65 1020.0
20260901134611 87 0 0.0 0.0 0.00 0.00 0.00 69 1019.9
20260901133055 85 0 0.0 0.0 0.00 0.00 0.00 70 1020.0
20260901131550 85 0 0.0 0.0 0.00 0.00 0.00 72 1020.0
20260901130059 83 0 0.0 0.0 0.00 0.00 0.00 75 1019.9
20260901124554 81 0 0.0 0.0 0.00 0.00 0.00 78 1019.8
20260901123049 78 0 0.0 0.0 0.00 0.00 0.00 82 1019.6
20260901121547 77 0 0.0 0.0 0.00 0.00 0.00 84 1019.5
20260901120054 76 0 0.0 0.0 0.00 0.00 0.00 86 1019.4
20260901114548 76 0 0.0 0.0 0.00 0.00 0.00 86 1019.3
20260901113052 76 0 0.0 0.0 0.00 0.00 0.00 86 1018.9
20260901111554 76 0 0.0 0.0 0.00 0.00 0.00 85 1018.8
20260901110051 76 0 0.0 0.0 0.00 0.00 0.00 85 1018.7
20260901104548 76 0 0.0 0.0 0.00 0.00 0.00 85 1018.7
20260901103057 76 0 0.0 0.0 0.00 0.00 0.00 84 1018.6
20260901101556 77 0 0.0 0.0 0.00 0.00 0.00 84 1018.5
20260901100051 77 0 0.0 0.0 0.00 0.00 0.00 83 1018.3
20260901094550 77 0 0.0 0.0 0.00 0.00 0.00 83 1018.3
20260901093057 77 0 0.0 0.0 0.00 0.00 0.00 82 1018.2
20260901091547 78 0 0.0 0.0 0.00 0.00 0.00 82 1018.2
20260901090046 78 0 0.0 0.0 0.00 0.00 0.00 82 1018.2
20260901084546 78 0 0.0 0.0 0.00 0.00 0.00 81 1018.1
20260901083052 78 0 0.0 0.0 0.00 0.00 0.00 81 1018.0
20260901081558 78 0 0.0 0.0 0.00 0.00 0.00 80 1018.0
20260901080048 79 0 0.0 0.0 0.00 0.00 0.00 80 1018.0
20260901074546 79 0 0.0 0.0 0.00 0.00 0.00 80 1018.0
20260901073050 79 0 0.0 0.0 0.00 0.00 0.00 79 1017.9
20260901071601 80 0 0.0 0.0 0.00 0.00 0.00 78 1017.9
20260901070048 80 0 0.0 0.0 0.00 0.00 0.00 78 1017.8
20260901064556 80 0 0.0 0.0 0.00 0.00 0.00 77 1017.8
20260901063052 80 0 0.0 0.0 0.00 0.00 0.00 77 1017.9
20260901061549 80 0 0.0 0.0 0.00 0.00 0.00 76 1018.0
20260901060048 80 0 0.0 0.0 0.00 0.00 0.00 76 1017.9
20260901054558 81 0 0.0 0.0 0.00 0.00 0.00 76 1018.0
20260901053118 81 0 0.0 0.0 0.00 0.00 0.00 76 1018.0
20260901051603 81 0 0.0 0.0 0.00 0.00 0.00 75 1018.0
20260901050048 81 0 0.0 0.0 0.00 0.00 0.00 75 1017.9
20260901044607 82 0 0.0 0.0 0.00 0.00 0.00 75 1017.8
20260901043052 82 0 0.0 0.0 0.00 0.00 0.00 74 1017.7
20260901041547 82 0 0.0 0.0 0.00 0.00 0.00 73 1017.7
20260901040106 82 0 0.0 0.0 0.00 0.00 0.00 73 1017.8
20260901034607 83 0 0.0 0.0 0.00 0.00 0.00 73 1017.6
20260901033049 83 0 0.0 0.0 0.00 0.00 0.00 72 1017.6
20260901031551 83 0 0.0 0.0 0.00 0.00 0.00 71 1017.7
20260901030051 84 0 0.0 0.0 0.00 0.00 0.00 71 1017.7
20260901024555 84 0 0.0 0.0 0.00 0.00 0.00 70 1017.6
20260901023104 84 0 0.0 0.0 0.00 0.00 0.00 69 1017.6
20260901021600 84 0 0.0 0.0 0.00 0.00 0.00 69 1017.3
20260901020057 85 0 0.0 0.0 0.00 0.00 0.00 67 1017.3
20260901014558 86 0 0.0 0.0 0.00 0.00 0.00 66 1017.0
20260901013058 87 0 0.0 0.0 0.00 0.00 0.00 65 1016.7
20260901011606 88 0 0.0 0.0 0.00 0.00 0.00 63 1016.8
20260901010054 89 0 0.0 0.0 0.00 0.00 0.00 60 1016.6
20260901004557 89 0 0.0 2.0 0.00 0.00 0.00 59 1016.5
20260901003058 89 0 0.0 0.0 0.00 0.00 0.00 61 1016.3
20260901001558 90 0 0.0 0.0 0.00 0.00 0.00 60 1016.3
20260901000058 92 0 0.0 0.0 0.00 0.00 0.00 58 1016.4
20260831234555 93 0 0.0 0.0 0.00 0.00 0.00 54 1016.4
20260831233048 94 0 0.0 1.0 0.00 0.00 0.00 52 1016.4
20260831231546 94 0 0.0 3.0 0.00 0.00 0.00 49 1016.6
20260831230108 95 42 2.0 4.0 0.00 0.00 0.00 48 1016.5
20260831224550 95 0 0.0 4.0 0.00 0.00 0.00 47 1016.7
20260831223052 95 0 0.0 3.0 0.00 0.00 0.00 48 1016.7
20260831221556 95 0 0.0 4.0 0.00 0.00 0.00 48 1016.9
20260831220105 95 0 0.0 0.0 0.00 0.00 0.00 48 1016.8
20260831214549 95 0 0.0 2.0 0.00 0.00 0.00 49 1016.9
20260831213046 95 0 0.0 6.0 0.00 0.00 0.00 48 1017.0
20260831211604 95 0 0.0 3.0 0.00 0.00 0.00 49 1017.3